Tracking 19847 objects as of 15-Sep-2019
HD Live streaming from Space Station
objects crossing your sky now

COSMOS 1325

Track COSMOS 1325 now!
10-day predictions
COSMOS 1325 is classified as:


NORAD ID: 12980
Int'l Code: 1981-116F
Perigee: 1,488.7 km
Apogee: 1,623.2 km
Inclination: 74.0 °
Period: 117.1 minutes
Semi major axis: 7926 km
RCS: 0.7 m2 (medium)
Launch date: November 28, 1981
Source: Commonwealth of Independent States (former USSR) (CIS)
Launch site: PLESETSK MISSILE AND SPACE COMPLEX (PKMTR)
aabbcc
Your satellite tracking list
Your tracking list is empty




NASA's NSSDC Master Catalog

Two Line Element Set (TLE):
1 12980U 81116F   19257.66283579 -.00000009  00000-0  46751-4 0  9994
2 12980  73.9790 266.6844 0084835 145.5986 334.9523 12.30102389697368
Source of the keplerian elements: AFSPC